TimeEST,TemperatureF,Dew PointF,Humidity,Sea Level PressureIn,VisibilityMPH,Wind Direction,Wind SpeedMPH,Gust SpeedMPH,PrecipitationIn,Events,Conditions,WindDirDegrees,DateUTC
12:53 AM,63.0,55.9,78,30.20,10.0,ENE,19.6,-,N/A,,Clear,60,2013-11-25 05:53:00
1:53 AM,64.0,55.9,75,30.19,10.0,ENE,19.6,-,N/A,,Clear,70,2013-11-25 06:53:00
2:53 AM,64.0,57.0,78,30.19,10.0,ENE,17.3,-,N/A,,Partly Cloudy,70,2013-11-25 07:53:00
3:53 AM,64.9,57.9,78,30.17,10.0,ENE,19.6,-,N/A,,Overcast,70,2013-11-25 08:53:00
4:53 AM,66.0,57.0,73,30.16,10.0,East,20.7,-,N/A,,Scattered Clouds,80,2013-11-25 09:53:00
5:53 AM,66.9,57.9,73,30.17,10.0,East,19.6,-,N/A,,Clear,80,2013-11-25 10:53:00
6:53 AM,68.0,57.9,70,30.18,10.0,East,18.4,-,N/A,,Scattered Clouds,80,2013-11-25 11:53:00
7:53 AM,69.1,59.0,70,30.20,10.0,East,20.7,-,N/A,,Overcast,90,2013-11-25 12:53:00
8:53 AM,69.1,59.0,70,30.22,10.0,East,20.7,-,N/A,,Overcast,90,2013-11-25 13:53:00
9:53 AM,70.0,59.0,68,30.22,10.0,East,18.4,-,N/A,,Overcast,90,2013-11-25 14:53:00
10:53 AM,72.0,59.0,64,30.23,10.0,East,20.7,-,N/A,,Overcast,100,2013-11-25 15:53:00
11:53 AM,73.9,61.0,64,30.19,10.0,East,18.4,-,N/A,,Overcast,100,2013-11-25 16:53:00
12:53 PM,75.9,62.1,62,30.15,10.0,East,18.4,-,N/A,,Partly Cloudy,100,2013-11-25 17:53:00
1:53 PM,75.9,61.0,60,30.13,10.0,ESE,17.3,-,N/A,,Partly Cloudy,110,2013-11-25 18:53:00
2:53 PM,75.9,60.1,58,30.13,10.0,ESE,15.0,-,N/A,,Mostly Cloudy,120,2013-11-25 19:53:00
3:53 PM,75.0,61.0,62,30.11,10.0,ESE,16.1,-,N/A,,Overcast,110,2013-11-25 20:53:00
4:53 PM,73.9,61.0,64,30.11,10.0,ESE,18.4,-,N/A,,Partly Cloudy,110,2013-11-25 21:53:00
5:53 PM,73.0,60.1,64,30.12,10.0,ESE,20.7,-,N/A,,Clear,120,2013-11-25 22:53:00
6:53 PM,73.0,60.1,64,30.14,10.0,ESE,16.1,-,N/A,,Scattered Clouds,120,2013-11-25 23:53:00
7:53 PM,72.0,61.0,68,30.13,10.0,ESE,17.3,-,N/A,,Partly Cloudy,120,2013-11-26 00:53:00
8:53 PM,71.1,62.1,73,30.11,10.0,ESE,20.7,-,N/A,,Partly Cloudy,120,2013-11-26 01:53:00
9:53 PM,71.1,63.0,75,30.10,10.0,ESE,16.1,-,N/A,,Clear,120,2013-11-26 02:53:00
10:53 PM,71.1,63.0,75,30.08,10.0,ESE,19.6,-,N/A,,Partly Cloudy,120,2013-11-26 03:53:00
11:53 PM,70.0,64.0,81,30.06,10.0,ESE,13.8,-,N/A,,Scattered Clouds,120,2013-11-26 04:53:00